Location: *
(2.5500°S, 65.9667°W)
Time: 15:47:21
(UTC+00:00)

A-11 Canister half - Pass Details

Date: 14 April 2024
Orbit: 1525 x 1683 km, 47.3° (Epoch: 21 May)

Event Time Altitude Azimuth Distance (km) Brightness Sun altitude
Exits shadow 06:27:43 13° 120° (ESE) 3,587 11.1 -58.5°
Drops below altitude 10° 06:29:54 10° 107° (ESE) 3,834 11.4 -58.0°
Sets 06:35:13 0° 84° (E) 4,853 12.1 -56.7°
